Regional Weather Roundup
Issued by NWS

Home | Current Version | Previous Version | Graphics & Text | Print | Product List | Glossary On
Versions: 1 2 3 4 5 6 7 8 9 10 11 12 13 14 15 16 17 18 19 20 21 22 23 24 25 26 27 28 29 30 31 32 33 34 35 36 37 38 39 40 41 42 43 44 45 46 47 48 49 50
000
ASUS43 KFSD 050402
RWRSD

WEATHER ROUNDUP FOR SOUTH DAKOTA
NATIONAL WEATHER SERVICE SIOUX FALLS SD
1100 PM CDT MON MAY 04 2015

NOTE: "FAIR" INDICATES FEW OR NO CLOUDS BELOW 12,000 FEET WITH NO
SIGNIFICANT WEATHER AND/OR OBSTRUCTIONS TO VISIBILITY.


SDZ001>005-009-010-012>017-050500-
NORTHWEST AND NORTH CENTRAL SOUTH DAKOTA

CITY           SKY/WX    TMP DP  RH WIND       PRES   REMARKS
BUFFALO          N/A     47  31  53 SE12      30.01S
FAITH            N/A     52  29  41 SE12      30.10S
MOBRIDGE       CLOUDY    57  25  29 E9        30.10S
$$

SDZ012>016-024>037-041>051-057-063-072>074-050500-
SOUTHWEST AND SOUTH CENTRAL SOUTH DAKOTA

CITY           SKY/WX    TMP DP  RH WIND       PRES   REMARKS
RAPID CTY ARPT MOCLDY    50  38  63 SW7       30.11S
PIERRE         MOCLDY    55  24  30 CALM      30.11R
CUSTER         MOCLDY    43  28  55 SE7       30.14R
ELLSWORTH AFB  MOCLDY    51  38  62 S9        30.10S
PHILIP         PTCLDY    50  23  34 E3        30.10S
PINE RIDGE     PTCLDY    40  31  70 E3        30.11R
WINNER         CLOUDY    59  32  36 SE8       30.11S
$$

SDZ004>011-016>023-039-040-050500-
NORTHEAST SOUTH DAKOTA

CITY           SKY/WX    TMP DP  RH WIND       PRES   REMARKS
ABERDEEN       PTCLDY    54  28  36 E8        30.15R
WATERTOWN      PTCLDY    58  26  29 E8        30.16S
BROOKINGS      MOCLDY    59  27  29 E9        30.16S
SISSETON         N/A     54  28  36 E5        30.17R
$$

SDZ017-020-022-023-036>040-048>070-050500-
SOUTHEAST SOUTH DAKOTA

CITY           SKY/WX    TMP DP  RH WIND       PRES   REMARKS
SIOUX FALLS    MOCLDY    54  30  40 E8        30.13S
HURON          PTCLDY    57  30  35 E9        30.12S
MITCHELL       PTCLDY    58  33  39 S7        30.12R
YANKTON        PTCLDY    55  45  67 CALM      30.13R
$$

ABBREVIATIONS USED IN REMARKS
   TC - TEMPERATURE IN CELSIUS
  WCI - WIND CHILL INDEX
   HX - HEAT INDEX
  VSB - VISIBILITY



USA.gov is the U.S. government's official web portal to all federal, state and local government web resources and services.